Weather observations for the past three days for
Jacksonville International Airport
Imperial (Metric)
Date Time (edt) Wind (mph) Vis. (mi.) Weather Sky Cond. Temperature (ºF) Relative Humidity Wind Chill (°F) Heat Index (°F) Pressure Precipitation (in)
Air Dwpt 6 hour altimeter (in) sea level (mb) 1 hr 3 hr 6 hr
Max. Min.
14 04:56 NW 3 9.00 A Few Clouds FEW021 73.9 72 94% 29.89 1012.1
14 03:56 N 6 9.00 Partly Cloudy SCT021 75 72 90% 74 29.87 1011.7
14 02:56 NW 5 10.00 A Few Clouds FEW025 73.9 72 94% 29.87 1011.7
14 01:56 N 5 10.00 Partly Cloudy FEW020 SCT250 75 72 82.9 75 90% 74 29.89 1012.1
14 00:56 Calm 10.00 Partly Cloudy FEW020 SCT250 75.9 73 91% 76 29.9 1012.5
13 23:56 NW 3 10.00 Partly Cloudy FEW020 SCT250 77 73 88% 78 29.91 1012.8
13 22:56 N 3 10.00 Partly Cloudy SCT250 79 73 82% 82 29.9 1012.6
13 21:56 NE 8 10.00 Partly Cloudy FEW025 SCT250 80.1 73 79% 84 29.9 1012.4
13 20:56 NE 8 10.00 Partly Cloudy FEW025 SCT250 81 73 77% 86 29.9 1012.4
13 19:56 NE 14 10.00 Partly Cloudy FEW025 SCT250 82.9 72 91 82.9 70% 88 29.89 1012.2
13 18:56 NE 14 10.00 A Few Clouds FEW026 FEW250 84.9 73 68% 92 29.88 1012.0
13 17:56 NE 15 10.00 Partly Cloudy SCT030 88 72 59% 95 29.88 1012.0
13 16:56 NE 15 G 21 10.00 A Few Clouds FEW033 90 71.1 54% 96 29.88 1011.7
13 15:56 NE 13 G 21 10.00 Partly Cloudy SCT033 SCT250 90 73 58% 98 29.88 1011.7
13 14:56 NE 16 G 23 10.00 Mostly Cloudy FEW035 SCT075 BKN250 91 71.1 52% 98 29.89 1012.3
13 13:56 E 18 G 24 10.00 Partly Cloudy FEW035 SCT060 SCT250 90 72 91 79 56% 97 29.9 1012.6
13 12:56 N 16 G 25 10.00 Mostly Cloudy BKN035 BKN060 BKN250 86 72 63% 92 29.9 1012.4
13 11:56 NE 14 G 20 10.00 Mostly Cloudy BKN035 BKN250 89.1 72 57% 96 29.9 1012.4
13 10:56 N 7 10.00 Mostly Cloudy BKN028 BKN250 89.1 73 59% 97 29.9 1012.7
13 09:56 NE 9 10.00 Mostly Cloudy BKN021 BKN250 84.9 73.9 70% 92 29.91 1012.9
13 08:56 Vrbl 6 10.00 Partly Cloudy FEW015 SCT090 SCT250 84 75 74% 92 29.9 1012.7
13 07:56 N 6 10.00 A Few Clouds FEW015 FEW090 FEW250 79 75 79 75.9 88% 83 29.89 1012.1
13 06:56 N 6 7.00 Mostly Cloudy FEW015 FEW090 BKN250 75.9 73.9 94% 75 29.87 1011.5
13 05:56 NW 3 9.00 Mostly Cloudy FEW015 BKN090 BKN250 75.9 73.9 94% 75 29.86 1011.1
13 04:56 N 5 10.00 Mostly Cloudy FEW025 BKN250 75.9 73.9 94% 75 29.86 1011.0
13 03:56 N 7 10.00 Mostly Cloudy FEW034 BKN250 77 75 94% 78 29.85 1010.9
13 02:56 N 7 10.00 Overcast FEW015 SCT034 BKN200 OVC250 77 75 94% 78 29.85 1010.9
13 01:56 N 5 10.00 Mostly Cloudy SCT016 BKN035 BKN250 78.1 75 82.9 78.1 90% 81 29.88 1011.8
13 00:56 N 5 10.00 A Few Clouds FEW250 79 75 88% 83 29.9 1012.4
12 23:56 E 8 10.00 A Few Clouds FEW250 79 75 88% 83 29.89 1012.2
12 22:56 NE 6 10.00 Partly Cloudy FEW016 SCT250 79 75 88% 83 29.9 1012.4
12 21:56 E 7 10.00 Mostly Cloudy FEW016 BKN250 80.1 75 85% 85 29.91 1012.8
12 20:56 E 10 10.00 Overcast BKN016 BKN200 OVC250 82 75 79% 89 29.91 1012.8
12 19:56 E 15 10.00 Mostly Cloudy SCT019 BKN180 BKN250 82.9 75 89.1 82 77% 90 29.9 1012.4
12 18:56 E 13 10.00 Mostly Cloudy SCT019 BKN220 BKN250 82.9 73.9 74% 89 29.91 1012.8
12 17:56 E 16 10.00 Mostly Cloudy FEW026 FEW150 SCT220 BKN250 84 73 70% 90 29.9 1012.6
12 16:56 NE 16 10.00 Mostly Cloudy SCT026 SCT150 BKN250 87.1 70 57% 92 29.91 1013.0
12 15:56 NE 21 G 29 10.00 Mostly Cloudy and Breezy SCT026 BKN250 88 73 61% 96 29.91 1013.0
12 14:56 NE 23 G 31 10.00 Mostly Cloudy and Breezy SCT026 BKN080 BKN250 88 73.9 63% 97 29.92 1013.2
12 13:56 E 17 10.00 Mostly Cloudy SCT026 BKN060 BKN250 88 73.9 90 80.1 63% 97 29.92 1013.3
12 12:56 E 15 10.00 Mostly Cloudy SCT026 BKN060 BKN250 90 73.9 59% 99 29.92 1013.2
12 11:56 E 14 10.00 Mostly Cloudy BKN029 BKN075 BKN250 89.1 75 63% 99 29.92 1013.1
12 09:56 E 7 10.00 Mostly Cloudy BKN022 BKN075 BKN250 84.9 75 72% 93 29.91 1013.0
12 08:56 NE 6 10.00 Mostly Cloudy SCT012 SCT080 BKN250 82.9 75 77% 90 29.92 1013.1
12 07:56 NE 5 10.00 Partly Cloudy FEW016 FEW080 SCT250 80.1 75 80.1 75 85% 85 29.91 1012.8
12 06:56 N 3 10.00 Partly Cloudy SCT016 SCT250 75 73 94% 73 29.9 1012.5
12 05:56 Calm 10.00 Partly Cloudy FEW016 SCT250 75 73 94% 73 29.88 1011.9
12 04:56 Calm 10.00 A Few Clouds FEW015 75.9 73.9 94% 75 29.87 1011.7
12 03:56 Calm 10.00 Fair CLR 75.9 73.9 94% 75 29.86 1011.3
12 02:56 N 5 10.00 A Few Clouds FEW075 75.9 73.9 94% 75 29.86 1011.2
12 01:56 S 3 10.00 Overcast BKN070 OVC085 77 73.9 82.9 77 90% 78 29.88 1011.7
12 00:56 E 5 10.00 Overcast BKN070 OVC085 79 75.9 90% 83 29.88 1012.0
11 23:56 NE 5 10.00 Overcast BKN070 OVC085 80.1 75.9 87% 85 29.88 1011.9
11 22:56 E 6 10.00 Mostly Cloudy SCT055 BKN250 81 75.9 85% 87 29.88 1011.7
11 20:56 E 8 10.00 Mostly Cloudy SCT016 BKN065 BKN250 81 75.9 85% 87 29.84 1010.6
11 19:56 E 8 10.00 Mostly Cloudy FEW020 SCT080 BKN250 82.9 73.9 91.9 77 74% 89 29.84 1010.4 0.56
11 18:56 E 8 10.00 Mostly Cloudy FEW040 SCT080 BKN250 86 73 65% 93 29.82 1010.0
11 17:56 E 8 10.00 Mostly Cloudy FEW035 SCT075 BKN250 86 75 70% 95 29.81 1009.7
11 16:56 E 9 10.00 Mostly Cloudy FEW017 SCT030 BKN060 BKN250 84 75 74% 92 29.81 1009.5 0.56 0.56
11 14:56 N 9 10.00 Mostly Cloudy SCT038 BKN065 BKN250 91 73 56% 100 29.82 1009.9
11 13:56 E 8 10.00 Mostly Cloudy SCT034 BKN250 91 75 91.9 79 59% 102 29.82 1010.0
11 12:56 Calm 10.00 Mostly Cloudy SCT029 BKN250 89.1 73 59% 97 29.83 1010.3
11 11:56 Calm 10.00 Mostly Cloudy SCT022 BKN250 88 73.9 63% 97 29.85 1010.7
11 10:56 W 5 10.00 Mostly Cloudy FEW020 BKN250 84.9 73.9 70% 92 29.85 1010.7
11 09:56 Vrbl 5 10.00 Mostly Cloudy FEW025 BKN250 84 73 70% 90 29.85 1011.0
11 08:56 W 7 10.00 Mostly Cloudy FEW025 BKN250 82 73 74% 87 29.84 1010.4
11 07:56 SW 7 10.00 Mostly Cloudy FEW025 FEW040 BKN250 79 72 79 73 79% 82 29.84 1010.4
11 05:56 SW 7 10.00 Mostly Cloudy FEW025 FEW040 BKN250 75.9 71.1 85% 76 29.82 1009.9
Date Time (edt) Wind (mph) Vis. (mi.) Weather Sky Cond. Air Dwpt Max. Min. Relative Humidity Wind Chill (°F) Heat Index (°F) altimeter (in) sea level (mb) 1 hr 3 hr 6 hr
6 hour
Temperature (ºF) Pressure Precipitation (in)